Tracking 20037 objects as of 20-Nov-2019
Live streaming from Space Station
objects crossing your sky now

IRS P4 (OCEANSAT 1)

Track IRS P4 (OCEANSAT 1) now!
10-day predictions
IRS P4 (OCEANSAT 1) is classified as:


NORAD ID: 25758
Int'l Code: 1999-029C
Perigee: 721.7 km
Apogee: 727.6 km
Inclination: 98.1 °
Period: 99.1 minutes
Semi major axis: 7095 km
RCS: 3.5411 m2 (large)
Launch date: May 26, 1999
Source: India (IND)
Launch site: SRIHARIKOTA (SRI)

Transmits image of its own view; not currently used for scientific mission but operational.
aabbcc
Your satellite tracking list
Your tracking list is empty




NASA's NSSDC Master Catalog

Two Line Element Set (TLE):
1 25758U 99029C   19323.73647447  .00000044  00000-0  21236-4 0  9992
2 25758  98.0600  22.7908 0004146  64.1106 296.0517 14.52504144 85275
Source of the keplerian elements: AFSPC